This is the latest recevied weather packets stored in our database for station/object F4ELU-13. If no packets are shown the sender has not sent any weather packets the latest 10 day(s).
| Time | Temp. | Humidity | Pressure | Rain* | Wind** | Luminosity | Snow |
|---|---|---|---|---|---|---|---|
| 1777838943 | 16.11° C | 69% | 1013.1 hPa | 0 mm | - | - | - |
| 1777838403 | 15.56° C | 70% | 1013.1 hPa | 0 mm | - | - | - |
| 1777838043 | 15.56° C | 71% | 1013 hPa | 0 mm | - | - | - |
| 1777837503 | 15° C | 73% | 1013.1 hPa | 0 mm | - | - | - |
| 1777836963 | 14.44° C | 75% | 1013 hPa | 0 mm | - | - | - |
| 1777836423 | 14.44° C | 75% | 1012.9 hPa | 0 mm | - | - | - |
| 1777835883 | 15° C | 74% | 1012.8 hPa | 0 mm | - | - | - |
| 1777835343 | 14.44° C | 76% | 1012.5 hPa | 0 mm | - | - | - |
| 1777834803 | 14.44° C | 75% | 1012.5 hPa | 0 mm | - | - | - |
| 1777834443 | 14.44° C | 75% | 1012.4 hPa | 0 mm | - | - | - |
| 1777833903 | 14.44° C | 75% | 1012.4 hPa | 0 mm | - | - | - |
| 1777833363 | 15° C | 75% | 1012.4 hPa | 0 mm | - | - | - |
| 1777832823 | 16.11° C | 70% | 1012.2 hPa | 0 mm | - | - | - |
| 1777832283 | 16.67° C | 69% | 1012.2 hPa | 0 mm | - | - | - |
| 1777831743 | 16.67° C | 68% | 1012.1 hPa | 0 mm | - | - | - |
| 1777831203 | 16.67° C | 67% | 1012.1 hPa | 0 mm | - | - | - |
| 1777830843 | 16.67° C | 68% | 1012 hPa | 0 mm | - | - | - |
| 1777830303 | 16.67° C | 69% | 1012 hPa | 0 mm | - | - | - |
| 1777829763 | 16.67° C | 69% | 1012.2 hPa | 0 mm | - | - | - |
| 1777829223 | 16.67° C | 68% | 1012.2 hPa | 0 mm | - | - | - |
| 1777828683 | 16.67° C | 68% | 1012.3 hPa | 0 mm | - | - | - |
| 1777828144 | 17.22° C | 68% | 1012.3 hPa | 0 mm | - | - | - |
| 1777827603 | 17.22° C | 67% | 1012.3 hPa | 0 mm | - | - | - |
| 1777827243 | 17.78° C | 67% | 1012.4 hPa | 0 mm | - | - | - |
| 1777826703 | 17.78° C | 67% | 1012.4 hPa | 0 mm | - | - | - |
* Rain latest hour (hover to see other rain measurements)
** Current wind speed in m/s (hover to see current wind gust speed)